Home > Weather > Grimstad > Past weeks

Flag for Norway Past Weather in Grimstad, Norway — Yesterday and Last 2 Weeks

Now
63 °F

Mild.


Feels Like: 63 °F
Forecast: 59 / 71 °F
Wind: 13 mph from Northeast

Location: Torungen Fyr

Current Time: May 31, 2016 at 4:02:42 AM

Latest Report: May 31, 2016 at 3:00 AM


Visibility: N/A

Pressure: 30.08 "Hg

Humidity: 77%

Dew Point: 56 °F

Location of GrimstadLocation

Past Weather in Grimstad — Graph

°F

Grimstad Temperature Yesterday

Maximum temperature yesterday: 62 °F (at 11:00 PM)
Minimum temperature yesterday: 55 °F (at 9:00 AM)
Average temperature yesterday: 58 °F

High & Low Weather Summary for the Past Weeks

 TemperatureHumidityPressure
High62 °F (May 31, 2:00 AM)98% (May 19, 10:00 PM)30.18 "Hg (May 19, 10:00 PM)
Low46 °F (May 17, 5:00 AM)44% (May 16, 9:00 AM)29.65 "Hg (May 17, 9:00 PM)
Average54 °F82%29.92 "Hg
* Reported May 16 2:00 AM — May 31 2:00 AM, Grimstad, Weather by CustomWeather, © 2016

Note: Actual official high and low records may vary slightly from our data, if they occured in-between our weather recording intervals... More about our weather records

Advertising

Grimstad Weather History for the Previous 24 Hours

Scroll right to see more
 ConditionsComfort  
Time TempWeatherWind HumidityBarometerVisibility
2:00 AM
Tue, May 31
62 °FMild.12 mph78%30.08 "HgN/A
1:00 AM62 °FCool.13 mph78%30.07 "HgN/A
12:00 AM62 °FCool.12 mph77%30.07 "HgN/A
11:00 PM
Mon, May 30
62 °FCool.12 mph79%30.06 "HgN/A
10:00 PM61 °FCool.10 mph82%30.06 "HgN/A
9:00 PM62 °FCool.10 mph81%30.05 "HgN/A
8:00 PM62 °FCool.10 mph81%30.04 "HgN/A
6:00 PM60 °FCool.12 mph86%30.05 "HgN/A
5:00 PM59 °FCool.12 mph87%30.05 "HgN/A
4:00 PM58 °FCool.12 mph90%30.06 "HgN/A
3:00 PM57 °FCool.12 mph91%30.07 "HgN/A
2:00 PM57 °FCool.13 mph92%30.07 "HgN/A
1:00 PM56 °FCool.8 mph93%30.10 "HgN/A
12:00 PM56 °FCool.15 mph93%30.06 "HgN/A
11:00 AM56 °FCool.10 mph90%30.09 "HgN/A
10:00 AM56 °FCool.14 mph93%30.07 "HgN/A
9:00 AM55 °FCool.15 mph95%30.07 "HgN/A
8:00 AM56 °FCool.8 mph94%30.11 "HgN/A
7:00 AM56 °FCool.14 mph94%30.07 "HgN/A
6:00 AM56 °FCool.15 mph94%30.06 "HgN/A
5:00 AM57 °FCool.14 mph93%30.07 "HgN/A
4:00 AM57 °FCool.14 mph92%30.08 "HgN/A
Weather by CustomWeather, © 2016

See weather overviewHow to use our weather pages